DW5677 Weather Reports


time (UTC)temp
F
wind
direction
speed
knots
gust
knots
rain 1hr
in
rain 24hr
in
rain mn
in
humidity
%
barometer
mb
20260509101532 50 236 5.2 9.6 0.00 0.02 0.00 94 1005.1
20260509100032 50 209 4.3 9.6 0.00 0.02 0.00 94 1004.9
20260509094530 50 238 5.2 8.7 0.00 0.02 0.00 94 1005.1
20260509093026 49 197 3.5 7.8 0.00 0.02 0.00 94 1005.2
20260509091533 49 217 3.5 6.1 0.00 0.02 0.00 94 1005.3
20260509090028 49 187 3.5 8.7 0.00 0.02 0.00 94 1005.2
20260509084526 49 186 1.7 5.2 0.00 0.02 0.00 93 1005.3
20260509083039 49 178 2.6 7.8 0.00 0.02 0.00 93 1005.4
20260509081532 49 181 3.5 6.1 0.00 0.02 0.00 93 1005.5
20260509080034 49 183 2.6 4.3 0.00 0.02 0.00 93 1005.5
20260509074526 47 155 0.9 4.3 0.00 0.02 0.00 93 1005.2
20260509073030 48 173 1.7 3.5 0.00 0.02 0.00 91 1005.4
20260509071530 50 196 1.7 5.2 0.00 0.02 0.00 92 1005.5
20260509070028 51 209 1.7 4.3 0.00 0.02 0.00 91 1005.8
20260509064532 51 213 0.9 4.3 0.00 0.02 0.00 91 1005.7
20260509063034 51 209 1.7 5.2 0.00 0.02 0.00 91 1005.9
20260509061540 52 221 1.7 5.2 0.00 0.02 0.00 90 1006.0
20260509060026 51 186 2.6 4.3 0.00 0.02 0.00 90 1006.1
20260509054530 52 189 2.6 6.1 0.00 0.02 0.00 89 1006.0
20260509053049 53 194 3.5 7.0 0.00 0.02 0.00 89 1006.1
20260509051527 53 215 3.5 8.7 0.00 0.02 0.00 88 1006.2
20260509050032 53 232 3.5 7.8 0.00 0.02 0.00 88 1006.5
20260509044527 53 218 3.5 7.8 0.00 0.02 0.02 87 1006.5
20260509043033 53 212 2.6 4.3 0.00 0.02 0.02 87 1006.7
20260509041528 54 185 2.6 6.1 0.00 0.02 0.02 86 1006.7
20260509040030 54 219 2.6 5.2 0.00 0.02 0.02 85 1006.7
20260509034534 54 197 2.6 7.0 0.00 0.02 0.02 84 1006.8
20260509033026 55 227 4.3 6.1 0.00 0.02 0.02 83 1007.0
20260509031528 55 198 2.6 7.0 0.00 0.02 0.02 82 1007.0
20260509030030 55 207 2.6 6.1 0.00 0.02 0.02 82 1007.1
20260509024530 55 196 1.7 4.3 0.00 0.02 0.02 82 1007.0
20260509023032 55 190 0.9 4.3 0.00 0.02 0.02 81 1007.1
20260509021528 56 200 1.7 4.3 0.00 0.02 0.02 80 1007.0
20260509020034 56 196 1.7 4.3 0.00 0.02 0.02 80 1007.0
20260509014532 57 190 1.7 4.3 0.00 0.02 0.02 79 1006.9
20260509013028 57 171 1.7 7.8 0.00 0.02 0.02 77 1006.9
20260509011528 58 204 4.3 8.7 0.00 0.02 0.02 76 1006.9
20260509010028 58 195 4.3 10.4 0.00 0.02 0.02 75 1006.8
20260509004536 59 196 6.1 12.2 0.00 0.02 0.02 74 1006.7
20260509003027 60 207 8.7 15.6 0.00 0.02 0.02 72 1006.6
20260509001528 62 215 8.7 13.0 0.00 0.02 0.02 68 1006.3
20260509000028 62 211 5.2 9.6 0.00 0.02 0.02 67 1006.4
20260508234528 62 202 3.5 8.7 0.00 0.02 0.02 67 1006.4
20260508233030 62 197 5.2 12.2 0.00 0.02 0.02 66 1006.6
20260508231529 63 241 6.1 11.3 0.00 0.02 0.02 65 1006.6
20260508230026 63 247 4.3 8.7 0.00 0.02 0.02 67 1006.6
20260508224530 63 200 5.2 12.2 0.00 0.02 0.02 67 1006.7
20260508223039 63 223 7.0 14.8 0.00 0.02 0.02 67 1006.7
20260508221532 62 253 7.0 11.3 0.00 0.02 0.02 67 1006.8
20260508220032 63 236 6.1 13.9 0.00 0.02 0.02 68 1006.7
20260508214528 63 243 7.8 13.9 0.00 0.02 0.02 67 1006.8
20260508213026 63 228 7.8 13.9 0.00 0.02 0.02 67 1006.8
20260508211538 63 276 7.8 13.0 0.00 0.02 0.02 68 1006.8
20260508210030 62 271 7.0 13.0 0.00 0.02 0.02 68 1007.0
20260508204528 62 207 3.5 11.3 0.00 0.02 0.02 70 1007.0
20260508203028 62 263 3.5 7.8 0.00 0.02 0.02 67 1007.2
20260508201526 62 259 2.6 7.8 0.00 0.02 0.02 67 1007.5
20260508200028 62 255 2.6 6.1 0.00 0.02 0.02 65 1007.7
20260508194531 62 0 0.0 5.2 0.00 0.02 0.02 67 1007.8
20260508193034 62 113 0.0 4.3 0.00 0.02 0.02 66 1007.9
20260508191537 61 0 1.7 5.2 0.00 0.02 0.02 66 1008.1
20260508190032 61 0 0.9 6.1 0.00 0.02 0.02 67 1008.2
20260508184526 61 129 2.6 5.2 0.00 0.02 0.02 70 1008.6
20260508183033 60 112 2.6 7.0 0.00 0.02 0.02 71 1008.7
20260508181528 60 82 2.6 5.2 0.00 0.02 0.02 70 1008.8
20260508180028 60 102 0.0 3.5 0.00 0.02 0.02 69 1008.9
20260508174529 59 0 0.9 5.2 0.00 0.02 0.02 70 1009.3
20260508173027 60 169 1.7 7.0 0.00 0.02 0.02 70 1009.7
20260508171525 59 215 0.9 4.3 0.00 0.02 0.02 70 1009.9
20260508170026 59 0 0.9 7.0 0.00 0.02 0.02 71 1010.2
20260508164528 59 0 1.7 7.0 0.00 0.02 0.02 73 1010.3
20260508163035 59 240 2.6 8.7 0.00 0.02 0.02 74 1010.6
20260508161532 58 194 5.2 9.6 0.00 0.02 0.02 74 1010.6
20260508160028 58 193 4.3 10.4 0.00 0.02 0.02 77 1010.8
20260508154526 57 209 3.5 8.7 0.00 0.02 0.02 79 1010.8
20260508153034 56 163 3.5 7.8 0.00 0.02 0.02 83 1011.1
20260508151530 55 184 3.5 6.1 0.00 0.02 0.02 83 1011.0
20260508150030 55 173 4.3 7.8 0.00 0.02 0.02 83 1011.1
20260508144529 55 212 3.5 8.7 0.00 0.02 0.02 84 1011.2
20260508143027 55 156 2.6 7.0 0.00 0.02 0.02 85 1011.0
20260508141526 54 158 5.2 7.0 0.00 0.02 0.02 86 1011.1
20260508140029 53 181 4.3 7.0 0.00 0.02 0.02 90 1011.2
20260508134531 52 202 2.6 5.2 0.01 0.02 0.02 92 1011.3
20260508133028 51 194 2.6 4.3 0.01 0.02 0.02 93 1011.5
20260508131531 50 213 1.7 6.1 0.02 0.02 0.02 93 1011.4
20260508130026 49 192 1.7 7.8 0.02 0.02 0.02 92 1011.3
20260508124530 49 191 2.6 6.1 0.01 0.01 0.01 91 1011.5
20260508123028 49 200 2.6 6.1 0.01 0.01 0.01 91 1011.5
20260508121527 48 215 2.6 4.3 0.00 0.00 0.00 90 1011.7
20260508120036 48 196 0.9 4.3 0.00 0.00 0.00 90 1011.2
20260508114527 47 208 0.0 1.7 0.00 0.00 0.00 90 1011.3
20260508113030 47 0 0.0 2.6 0.00 0.00 0.00 89 1010.9
20260508111531 46 208 1.7 2.6 0.00 0.00 0.00 89 1010.8
20260508110029 46 208 1.7 2.6 0.00 0.00 0.00 88 1010.9
20260508104528 47 0 0.0 3.5 0.00 0.00 0.00 87 1010.9
20260508103026 46 0 0.9 2.6 0.00 0.00 0.00 87 1010.8